星链-2717 (STARLINK-2717 )

导读

STARLINK-2717是美国SpaceX公司星链(Starlink)卫星互联网项目中的一颗卫星,于2021年5月26日发射入轨,属于星链计划中低轨互联网星座的组成部分,旨在为全球提供高速低延迟互联网服务,尤其覆盖偏远、网络基础设施薄弱区域,是星链大规模组网进程中的一颗卫星。

基本信息
目录编号:
48659
目录名称:
STARLINK-2717
国际标识:
2021-044X
轨道中心:
EARTH
卫星名称:
星链-2717
卫星全名:
星链-2717 (STARLINK-2717 )
卫星状态:
在轨 (已飞行1927 天)
发射日期:
2021-05-26 UTC
国别 :
美国 (US)
星等 :
--
轨道信息
数据来源 国际轨道数据 AOE轨道数据
星历时间 2026-09-04T02:23:38+0800
10小时前
查看轨道信息
2026-08-31T08:00:00+0800
4天前
查看轨道信息
半长轴 6848.909km 6848.871km
偏心率 0.0001281 0.0000914
轨道倾角 53.161° 53.161°
近地点辐角 71.955° 81.566°
升交点赤经 5.150° 22.683°
平近点角 288.159° 18.565°
近地点 469.894km 470.108km
远地点 471.65km 471.36km
周期 94.014分钟 94.013分钟
每日圈数 15.316895 15.317022
详细信息
固有亮度:
5
最大亮度:
2.5
卫星平台:
Starlink V1.0
覆盖范围:
全球
运营商:
太空探索技术公司
运营商所在国:
美国
制造商(研发单位):
太空探索技术公司
制造商所在国:
美国
使用方式:
暂无
卫星简介
星链(Starlink)计划是由太空探索技术公司(SpaceX)提出的一个巨型低轨卫星互联网星座项目,计划在2019年至2024年间在太空搭建由约1.2万颗卫星组成的“星链”网络,其中1584颗将部署在地球上空550千米处的近地轨道,并从2020年开始工作。该卫星仍在工作。
2D轨道图
3D轨道图
轨道高度分析图
轨道倾角分析图
轨道综合分析图
查看轨道综合分析图
交会数据列表
事件ID 空间交会对象 最接近时刻(TCA) 交会距离 交会风险概率(CRP) 交会风险指数(CRI) 操作
CDM_260905-011104-865906-487921
OBJECT D (64879)
2026-09-05T
01:11:07+0000
2.556 km
极远距离
1.63915E-6 低风险 0.39
CDM_260905-121504-865906-975421
2026-09-05T
12:15:30+0000
2.458 km
极远距离
1.536816E-6 低风险 0.39
CDM_260904-233704-865906-487921
OBJECT D (64879)
2026-09-04T
23:37:04+0000
2.730 km
极远距离
1.476566E-6 低风险 0.38
CDM_260830-070404-865906-810321
2026-08-30T
07:04:55+0000
2.851 km
极远距离
1.426266E-6 低风险 0.38
CDM_260903-121104-865906-802721
2026-09-03T
12:11:45+0000
2.906 km
极远距离
1.389823E-6 低风险 0.38
CDM_260904-023904-865906-878621
2026-09-04T
02:39:48+0000
2.716 km
极远距离
1.255699E-6 低风险 0.37
CDM_260830-130004-865906-754421
2026-08-30T
13:00:11+0000
2.926 km
极远距离
1.231916E-6 低风险 0.37
CDM_260904-112304-865906-187022
OBJECT B (61870)
2026-09-04T
11:23:26+0000
2.901 km
极远距离
9.617266E-7 极低风险 0.35